Terug naar catalogus

FENGYUN 1C DEB

ActiefSSO
NORAD 33648·DEBRIS·🇨🇳 China

Gelanceerd May 10, 1999 vanaf Taiyuan Satellite Launch Center

Loading…

Volgende Passages (komende 24 uur)

TLE

VersSource: Space-Track

Epoch: Sep 14, 2026, 06:13 UTC

1 33648U 99025DEH 26257.25951251  .00000088  00000-0  69631-4 0  9996
2 33648  98.7321 253.5040 0069774 111.7679 249.0938 14.11892819682645

Volg FENGYUN 1C DEB in realtime met AllMySat

Download on the App Store